This is the latest recevied weather packets stored in our database for station/object K5KVN. If no packets are shown the sender has not sent any weather packets the latest 10 day(s).
| Time | Temp. | Humidity | Pressure | Rain* | Wind** | Luminosity | Snow |
|---|---|---|---|---|---|---|---|
| 1777485831 | 17.78° C | 69% | 1018.1 hPa | 0 mm | - | - | - |
| 1777485229 | 18.33° C | 67% | 1018.3 hPa | 0 mm | - | - | - |
| 1777484689 | 17.78° C | 69% | 1018.5 hPa | 0 mm | - | - | - |
| 1777484029 | 17.78° C | 67% | 1018.6 hPa | 0 mm | - | - | - |
| 1777483424 | 17.78° C | 69% | 1018.8 hPa | 0 mm | - | - | - |
| 1777482885 | 17.78° C | 70% | 1018.9 hPa | 0 mm | - | - | - |
| 1777482284 | 17.78° C | 70% | 1018.9 hPa | 0 mm | - | - | - |
| 1777481626 | 17.22° C | 71% | 1018.9 hPa | 0 mm | - | - | - |
| 1777481024 | 16.67° C | 72% | 1019 hPa | 0 mm | - | - | - |
| 1777480484 | 16.67° C | 72% | 1019 hPa | 0 mm | - | - | - |
| 1777479885 | 16.67° C | 73% | 1019.1 hPa | 0 mm | - | - | - |
| 1777479225 | 16.11° C | 74% | 1019.2 hPa | 0 mm | - | - | - |
| 1777478626 | 16.11° C | 75% | 1019.4 hPa | 0 mm | - | - | - |
| 1777478024 | 15.56° C | 77% | 1019.3 hPa | 0 mm | - | - | - |
| 1777477425 | 15.56° C | 75% | 1019.1 hPa | 0 mm | - | - | - |
| 1777476825 | 15.56° C | 78% | 1019 hPa | 0 mm | - | - | - |
| 1777476224 | 15° C | 79% | 1018.9 hPa | 0 mm | - | - | - |
| 1777475624 | 14.44° C | 82% | 1019.2 hPa | 0 mm | - | - | - |
| 1777475025 | 14.44° C | 84% | 1019 hPa | 0 mm | - | - | - |
| 1777474426 | 13.89° C | 85% | 1019 hPa | 0 mm | - | - | - |
| 1777473888 | 13.33° C | 87% | 1019.2 hPa | 0 mm | - | - | - |
| 1777473283 | 12.78° C | 86% | 1019.2 hPa | 0 mm | - | - | - |
| 1777472622 | 12.22° C | 88% | 1019.2 hPa | 0 mm | - | - | - |
| 1777472024 | 12.22° C | 88% | 1019.3 hPa | 0 mm | - | - | - |
| 1777471423 | 11.67° C | 89% | 1019.4 hPa | 0 mm | - | - | - |
* Rain latest hour (hover to see other rain measurements)
** Current wind speed in m/s (hover to see current wind gust speed)